TimeCDT,TemperatureF,Dew PointF,Humidity,Sea Level PressureIn,VisibilityMPH,Wind Direction,Wind SpeedMPH,Gust SpeedMPH,PrecipitationIn,Events,Conditions,WindDirDegrees,DateUTC
12:53 AM,64.0,43.0,46,29.75,10.0,SW,11.5,18.4,N/A,,Clear,230,2013-03-16 05:53:00
1:53 AM,63.0,43.0,48,29.75,10.0,SW,10.4,-,N/A,,Clear,230,2013-03-16 06:53:00
2:53 AM,62.1,43.0,50,29.75,10.0,SW,11.5,-,N/A,,Clear,230,2013-03-16 07:53:00
3:53 AM,60.1,42.1,51,29.74,10.0,SW,8.1,-,N/A,,Clear,230,2013-03-16 08:53:00
4:53 AM,57.9,42.1,56,29.74,10.0,SW,8.1,-,N/A,,Clear,230,2013-03-16 09:53:00
5:53 AM,57.0,42.1,57,29.76,10.0,West,6.9,-,N/A,,Clear,270,2013-03-16 10:53:00
6:53 AM,55.0,42.1,62,29.79,10.0,WSW,4.6,-,N/A,,Clear,250,2013-03-16 11:53:00
7:53 AM,55.9,42.1,60,29.81,10.0,WSW,4.6,-,N/A,,Clear,250,2013-03-16 12:53:00
8:53 AM,59.0,43.0,55,29.82,10.0,West,5.8,-,N/A,,Clear,280,2013-03-16 13:53:00
9:53 AM,66.0,44.1,45,29.83,10.0,WNW,10.4,-,N/A,,Clear,290,2013-03-16 14:53:00
10:53 AM,66.9,45.0,45,29.84,10.0,NNW,9.2,-,N/A,,Clear,330,2013-03-16 15:53:00
11:53 AM,66.9,45.0,45,29.85,10.0,North,9.2,-,N/A,,Clear,10,2013-03-16 16:53:00
12:53 PM,66.9,43.0,42,29.87,10.0,North,8.1,-,N/A,,Clear,10,2013-03-16 17:53:00
1:53 PM,68.0,46.0,45,29.86,10.0,NNE,13.8,-,N/A,,Clear,20,2013-03-16 18:53:00
2:53 PM,64.9,39.9,40,29.84,10.0,NE,11.5,-,N/A,,Clear,40,2013-03-16 19:53:00
3:53 PM,63.0,41.0,45,29.84,10.0,NNE,12.7,-,N/A,,Clear,30,2013-03-16 20:53:00
4:53 PM,61.0,39.9,46,29.85,10.0,NNE,17.3,21.9,N/A,,Clear,30,2013-03-16 21:53:00
5:53 PM,55.0,37.9,53,29.85,8.0,NE,16.1,-,N/A,,Clear,50,2013-03-16 22:53:00
6:53 PM,51.1,37.0,59,29.87,7.0,NE,16.1,27.6,N/A,,Clear,40,2013-03-16 23:53:00
7:53 PM,48.0,36.0,63,29.89,8.0,NE,18.4,-,N/A,,Overcast,40,2013-03-17 00:53:00
8:53 PM,46.9,35.1,63,29.90,8.0,NE,12.7,-,N/A,,Overcast,40,2013-03-17 01:53:00
9:53 PM,45.0,35.1,68,29.91,7.0,NE,10.4,-,N/A,,Scattered Clouds,50,2013-03-17 02:53:00
10:53 PM,44.1,35.1,71,29.91,6.0,ENE,8.1,-,N/A,,Haze,60,2013-03-17 03:53:00
11:53 PM,44.1,35.1,71,29.93,7.0,NE,9.2,-,N/A,,Overcast,40,2013-03-17 04:53:00